Location: Sinnemahoning State Park
(41.4031°N, 78.0230°W)
Time: 03:44:56
(UTC-04:00)

Daily predictions for brighter satellites

Satellite Brightness Start Highest point End
(mag) Time Altitude Azimuth Time Altitude Azimuth Time Altitude Azimuth
USA 234 3.5 00:00:21 10° NE 00:06:50 66° NW 00:13:17 10° WSW
Cosmos 1000 Rocket 4.5 00:01:27 10° NNW 00:07:40 73° W 00:08:34 63° SSW
Cosmos 2082 Rocket 3.5 00:03:36 10° NW 00:08:20 28° WSW 00:08:58 27° WSW
Lacrosse 5 rocket 3.8 00:13:04 13° NE 00:13:04 13° NE 00:13:27 10° NE
Meteor 2-4 Rocket 3.7 00:04:34 10° N 00:09:56 67° ENE 00:09:56 67° ENE
Cosmos 2239 Rocket 4.5 00:12:08 64° SSW 00:13:06 79° W 00:19:27 10° N
Meteor 2-15 Rocket 4.4 00:10:01 10° N 00:16:09 67° E 00:16:28 66° E
Meteor 1-11 Rocket 3.9 00:17:27 63° WSW 00:18:06 69° WNW 00:23:54 10° N
Meteor 2-14 Rocket 4.2 00:20:08 80° S 00:20:32 88° E 00:26:43 10° N
Cosmos 1302 Rocket 4.2 00:21:05 63° W 00:21:16 64° WNW 00:26:33 10° NNE
Meteor 2-15 4.2 00:17:45 10° N 00:23:55 90° E 00:24:13 82° S
Gbstr 26 Del rocket 4.2 00:24:04 10° NW 00:27:04 38° NW 00:27:04 38° NW
Cosmos 1536 4.4 00:40:02 32° NNW 00:40:02 32° NNW 00:42:36 10° N
Cosmos 1400 Rocket 4.4 00:40:45 32° NW 00:40:45 32° NW 00:43:38 10° N
H-2A R/B 3.7 00:35:26 10° NNE 00:38:33 42° NE 00:38:33 42° NE
ISS -0.1 00:44:37 10° NW 00:46:33 15° N 00:48:30 10° NNE
Cosmos 1605 Rocket 4.0 00:47:50 72° WSW 00:48:18 76° W 00:54:44 10° N
Cosmos 2285 Rocket 4.1 00:51:55 61° WSW 00:52:41 67° WNW 00:59:04 10° NNE
Cosmos 2369 Rocket 2.3 00:57:32 66° WNW 00:57:32 66° WNW 01:03:09 10° NNE
MOS 1-B Rocket 3.9 00:58:33 78° ESE 00:58:50 81° ENE 01:05:35 10° NNW
CZ-4B R/B 4.4 01:04:48 15° NNW 01:04:48 15° NNW 01:05:24 10° NNW
Cosmos 1153 Rocket 4.4 01:04:09 80° WSW 01:04:23 82° W 01:10:46 10° N
Cosmos 2123 Rocket 4.5 00:58:31 10° NNW 01:04:29 47° W 01:04:44 47° W
CZ-2C R/B 4.0 01:04:53 38° ENE 01:04:53 38° ENE 01:09:10 10° N
Cosmos 2173 Rocket 4.2 01:05:19 59° E 01:05:20 59° E 01:11:34 10° NNE
Cosmos 2219 4.5 01:02:20 10° N 01:07:22 32° ENE 01:08:34 29° E
ALOS 2 4.0 01:10:19 33° NW 01:10:19 33° NW 01:13:03 10° NNW
Lacrosse 5 2.7 01:09:48 45° NW 01:10:15 46° NW 01:15:11 10° NE
CZ-2C R/B 3.0 01:06:17 10° NNE 01:10:38 54° ENE 01:10:38 54° ENE
Cosmos 1455 Rocket 4.4 01:14:19 35° NW 01:14:19 35° NW 01:17:16 10° N
NOSS 3-1 (A) 4.2 01:12:01 10° NW 01:19:28 56° WSW 01:19:56 55° SW
Cosmos 968 Rocket 4.0 01:18:24 10° NNW 01:23:08 55° NE 01:23:08 55° NE
Cosmos 44 Rocket 4.1 01:24:55 10° NNW 01:29:43 49° NE 01:29:43 49° NE
Cosmos 1656 Rocket 4.4 01:31:13 43° E 01:31:13 43° E 01:35:44 10° NE
Cosmos 1943 Rocket 2.2 01:37:33 72° NNW 01:37:33 72° NNW 01:42:48 10° NNE
Cosmos 1818 3.8 01:38:10 65° NW 01:38:10 65° NW 01:43:21 10° NNE
ATLAS 2AS CENTAUR R/B 2.9 01:32:54 10° NW 01:41:04 87° ENE 01:42:50 59° SE
Cosmos 2098 Rocket 4.5 01:41:51 53° ESE 01:42:42 56° E 01:49:59 10° NNE
Lacrosse 5 rocket 3.8 01:48:45 15° NW 01:49:23 16° NNW 01:51:44 10° NNE
SL-08 R/B 4.4 01:58:38 81° SSW 01:59:00 87° W 02:05:27 10° N
Cosmos 1777 Rocket 4.1 01:57:50 10° NNW 02:02:36 70° NNE 02:02:36 70° NNE
Cosmos 2058 Rocket 4.0 02:08:25 45° NE 02:08:25 45° NE 02:11:45 10° NNE
Cosmos 44 4.0 02:04:55 10° NNW 02:10:00 51° NE 02:10:31 48° ENE
ISS -0.3 02:21:47 10° NNW 02:23:58 16° NNE 02:26:09 10° NE
Cosmos 1726 Rocket 4.4 02:26:26 45° NNW 02:26:26 45° NNW 02:29:38 10° N
BREEZE-M DEB (TANK) 3.7 02:11:54 10° WNW 02:26:00 72° NNE 02:28:17 28° E
Meteor 1-21 4.3 02:22:51 10° NNW 02:28:11 64° W 02:28:11 64° W
Cosmos 2233 Rocket 3.8 02:27:50 69° SSE 02:28:31 79° E 02:34:40 10° N
ATLAS CENTAUR R/B 3.3 02:43:06 26° ESE 02:43:06 26° ESE 02:47:11 10° ENE
SeaSat 1 2.7 02:44:11 55° WNW 02:44:11 55° WNW 02:48:17 10° NNW
Cosmos 2082 4.4 02:39:22 10° NNW 02:44:51 49° ENE 02:47:55 25° SE
Meteor 2-17 Rocket 4.3 02:45:29 67° SSW 02:46:19 81° W 02:52:29 10° N
Meteor 1-15 Rocket 4.1 02:45:49 72° SSW 02:46:25 83° W 02:52:21 10° N
Meteor 2-9 Rocket 4.2 02:47:36 67° WSW 02:48:10 73° W 02:54:00 10° N
Cosmos 1340 4.4 02:45:52 10° NNW 02:47:50 27° NNW 02:47:50 27° NNW
CZ-2C R/B 4.5 02:47:53 10° NNW 02:51:17 18° WNW 02:52:09 17° WNW
Cosmos 2219 4.1 02:46:23 10° NW 02:50:27 34° W 02:50:27 34° W
IRS-P3 4.0 02:48:50 10° NNE 02:54:13 79° ESE 02:54:49 69° SSE
Lacrosse 5 4.4 02:51:06 10° NW 02:54:22 17° NNW 02:57:39 10° NNE
Cosmos 2227 Rocket 2.5 02:50:22 10° NNW 02:56:02 64° ENE 02:58:37 32° SE
Meteor 2-5 Rocket 4.4 02:50:18 10° N 02:56:03 53° ENE 02:58:45 30° SE
Uosat 12 SS-18 rocket 4.3 02:53:28 10° NW 02:58:12 83° WSW 02:58:24 80° S
Cosmos 1570 Rocket 4.4 02:58:55 48° W 02:59:23 49° WNW 03:04:35 10° N
Cosmos 1898 Rocket 4.1 02:56:29 10° NNW 03:01:46 55° ENE 03:04:20 29° SE
Cosmos 1666 4.5 03:10:35 23° NW 03:10:35 23° NW 03:12:44 10° NNW
Cosmos 2278 3.6 03:12:02 61° SSW 03:13:07 89° WNW 03:18:49 10° NNE
Cosmos 220 Rocket 4.2 03:09:11 10° NNW 03:13:31 67° ENE 03:14:06 58° ESE
Cosmos 2369 3.6 03:13:13 58° S 03:14:22 83° ESE 03:20:04 10° NNE
Cosmos 1937 Rocket 4.2 03:09:43 10° N 03:14:45 51° ENE 03:18:26 18° SE
Geosat 3.9 03:10:04 10° NNE 03:15:07 76° ESE 03:15:57 61° S
Cosmos 2228 4.1 03:15:46 33° WNW 03:15:46 33° WNW 03:19:13 10° N
Cosmos 2297 Rocket 2.4 03:11:53 10° NNW 03:17:33 68° ENE 03:21:33 20° SE
Resurs 1-4 Rocket 3.5 03:15:07 10° NE 03:19:45 30° E 03:22:29 19° SE
AQUA 3.7 03:15:59 10° N 03:20:46 82° WNW 03:21:22 67° SW
USA 161 3.3 03:21:36 31° NE 03:21:36 31° NE 03:23:48 10° N
Cosmos 1943 Rocket 4.5 03:19:23 10° WNW 03:21:55 13° NW 03:24:29 10° NNW
NPP 3.7 03:17:56 10° N 03:23:18 68° WNW 03:24:27 53° SW
ADEOS 3.6 03:19:12 10° NNE 03:24:26 71° ESE 03:25:56 46° S
Okean O Rocket 4.5 03:24:30 10° E 03:25:05 10° E 03:25:39 10° E
Cosmos 2034 Rocket 4.0 03:23:22 38° S 03:25:54 76° E 03:32:07 10° N
Cosmos 405 Rocket 2.7 03:22:31 10° N 03:26:36 89° WNW 03:26:38 88° SSW
ARIANE 5 R/B 3.2 03:22:45 10° NNE 03:27:42 47° E 03:29:52 30° SSE
ATLAS 2AS CENTAUR R/B 4.3 03:25:36 10° WNW 03:30:12 20° W 03:30:12 20° W
SL-16 R/B 3.1 03:25:03 10° SE 03:31:03 56° ENE 03:37:04 10° N
Cosmos 1766 4.5 03:30:17 30° SE 03:31:23 36° E 03:35:02 10° NNE
Milstar 3 Cent rocket 3.7 03:36:28 20° SSE 03:36:28 20° SSE 03:40:38 10° ESE
Nadezhda 4 Rocket 4.3 03:31:11 10° N 03:37:20 65° E 03:42:21 16° SSE
Cosmos 1378 4.4 03:35:38 10° N 03:39:12 38° ENE 03:41:10 22° SE
BREEZE-M DEB (TANK) 3.3 03:38:17 34° WSW 03:40:36 74° NNW 03:43:28 10° NE
Meteor 1-24 Rocket 3.9 03:36:43 10° N 03:42:27 75° E 03:46:45 19° SSE
Spot 4 Rocket 3.9 03:38:12 10° NNE 03:43:24 88° WNW 03:45:14 42° SSW
IRAS Rocket 4.4 03:39:12 10° N 03:44:44 59° WNW 03:46:41 39° SW
UNKNOWN OBJECT B 4.4 03:41:53 10° NE 03:45:19 28° E 03:47:13 19° SE
Cosmos 1812 Rocket 4.3 03:45:32 37° W 03:45:54 38° WNW 03:50:05 10° N
SL-08 R/B 4.0 03:48:23 34° W 03:48:23 34° W 03:52:34 10° NNW
ERS-2 2.4 03:47:19 10° N 03:50:58 52° WNW 03:51:13 51° W
SL-24 R/B 4.3 03:48:50 26° SSE 03:51:39 89° ENE 03:56:13 10° NNW
OE (NEXTSAT) 4.3 03:53:26 70° S 03:53:37 72° SSE 03:57:14 10° ENE
IRS-1D 3.5 03:48:49 10° NNE 03:53:47 76° ESE 03:56:09 32° S
Cosmos 2298 Rocket 4.4 03:49:33 10° NNW 03:54:34 44° WSW 03:55:45 38° SW
Cosmos 1814 Rocket 4.1 03:53:05 39° SW 03:54:59 67° WNW 04:00:21 10° NNE
SAR-Lupe-3 4.3 03:54:57 68° SW 03:55:12 72° WSW 03:58:42 10° NNW
BREEZE-M DEB (TANK) 4.5 03:51:33 10° WNW 03:52:42 15° WNW 03:52:42 15° WNW
Cosmos 1953 3.7 03:54:24 18° SSE 03:56:55 35° E 04:00:38 10° NNE
EO 1 Del DPAF 3.8 03:54:44 20° SSE 03:57:17 59° ENE 04:01:07 10° N
GPS 2-04 Rocket1 3.6 03:57:57 33° SSE 03:57:57 33° SSE 04:00:59 10° ESE
SME Rocket 4.1 03:53:44 20° S 03:57:46 82° WSW 04:06:12 10° NNW
ISS -2.6 03:57:45 10° NW 04:00:57 54° NNE 04:04:09 10° ESE
Cosmos 1441 Rocket 3.6 03:58:52 10° N 04:02:51 66° E 04:05:35 19° SSE
Cosmos 1656 3.7 04:03:16 33° SW 04:05:53 69° WNW 04:11:34 10° NNE
Cosmos 1707 3.5 04:03:40 10° NNW 04:07:13 33° W 04:07:17 33° W
UNK 3.7 04:09:14 21° S 04:12:18 74° WSW 04:17:00 10° NNW
Cosmos 1634 Rocket 4.3 04:07:47 14° S 04:13:12 68° E 04:19:27 10° NNE
NOSS 7 (H) 4.3 04:15:21 44° S 04:16:12 69° ESE 04:19:31 10° NE
CZ-2D R/B 2.1 04:11:33 10° NNE 04:17:03 83° WNW 04:20:34 23° SSW
Okean 3 Rocket 4.4 04:15:51 10° NNW 04:19:43 31° W 04:20:35 28° WSW
Cosmos 990 Rocket 4.0 04:15:14 10° NNW 04:20:23 57° WSW 04:24:59 13° S
ATLAS CENTAUR R/B 2.5 04:19:27 25° WSW 04:21:58 45° NW 04:26:47 10° NNE
CZ-2D R/B 3.9 04:18:41 10° NNE 04:23:00 63° E 04:26:27 16° S
Cosmos 1092 Rocket 4.0 04:20:07 10° NNW 04:26:23 73° W 04:32:40 10° S
In-Cosmos 22 4.1 04:21:35 10° N 04:26:54 83° E 04:32:12 10° S
Cosmos 1697 Rocket 2.8 04:24:08 25° SW 04:27:28 62° WNW 04:33:06 10° NNE
RESURS DK-1 4.4 04:25:28 10° N 04:29:10 31° ENE 04:32:52 10° ESE
CZ-2C R/B 4.4 04:26:25 10° SSE 04:31:01 59° ENE 04:35:35 10° N
Cosmos 1461 4.4 04:29:57 10° NNW 04:33:52 38° NE 04:37:35 10° ESE
Cosmos 1544 3.9 04:31:10 11° S 04:34:30 50° E 04:38:04 10° NNE
Cosmos 1980 Rocket 2.2 04:31:22 20° SSW 04:35:25 87° WNW 04:41:07 10° NNE
Cosmos 2227 Rocket 3.6 04:35:48 10° WNW 04:39:28 18° W 04:40:20 17° WSW
GEOS 3 Rocket 3.8 04:37:17 10° SSE 04:42:18 48° WSW 04:47:19 10° NW
Cosmos 1674 3.7 04:42:17 10° N 04:45:57 47° E 04:49:34 10° SSE
Cosmos 2322 Rocket 3.1 04:41:20 10° S 04:46:39 46° ESE 04:51:59 10° NE
Abrixas 2.9 04:45:57 10° WNW 04:49:00 67° NNE 04:52:03 10° ESE
Cosmos 1125 Rocket 3.4 04:44:45 10° NNW 04:49:58 76° WSW 04:55:09 10° SSE
CZ-3 Stage 3 4.5 04:10:33 10° W 04:53:18 51° SSW 05:00:21 10° SE
Cosmos 841 Rocket 4.2 04:49:56 17° SW 04:53:35 40° WNW 04:58:34 10° N
Cosmos 1500 Rocket 3.6 04:49:50 10° N 04:54:16 86° E 04:58:37 10° S
Cosmos 2151 4.5 04:50:19 10° N 04:54:23 39° ENE 04:58:25 10° SSE
NOSS 3-4 (A) 4.3 04:48:15 10° NW 04:54:39 38° WSW 05:01:22 10° S
NOSS 3-4 (C) 4.3 04:48:21 10° NW 04:54:48 38° WSW 05:01:34 10° S
Cosmos 1743 Rocket 3.6 04:54:44 10° NNW 04:59:00 56° W 05:03:15 10° S
Cosmos 1470 3.0 04:55:24 10° S 04:59:18 70° E 05:03:16 10° NNE
PSLV R/B 3.7 04:55:39 10° N 04:59:30 71° WNW 05:03:12 10° SSW
Resurs 1-4 Rocket 3.0 04:54:53 10° N 04:59:34 34° WNW 05:03:35 13° SW
CZ-4B R/B 3.0 04:56:09 10° NNE 05:00:07 69° E 05:03:52 10° S
Cosmos 2297 Rocket 3.7 04:57:31 10° WNW 05:00:56 17° W 05:03:14 13° SW
Okean O Rocket 1.6 04:57:32 10° N 05:01:55 72° WNW 05:06:18 10° SSW
Cosmos 1437 3.2 05:01:14 10° NNW 05:04:25 42° W 05:07:34 10° SSW
MOZ.5/SAFIR/RUBIN 5/SL-8 3.7 04:59:42 10° S 05:04:25 72° WSW 05:09:07 10° NNW
ARIANE 5 R/B 4.0 05:02:37 10° NNW 05:06:30 22° WNW 05:10:12 11° WSW
Cosmos 2279 Rocket 4.0 05:02:18 10° SSW 05:08:34 77° W 05:14:51 10° N
Lacrosse 5 rocket 4.3 05:10:02 10° N 05:10:57 11° NNE 05:11:51 10° NNE
SL-16 R/B 3.6 05:10:15 10° SW 05:15:01 23° W 05:19:47 10° NW
Cosmos 2360 4.4 05:10:13 10° SW 05:15:48 59° WNW 05:21:29 10° NNE
SL-16 R/B 2.4 05:13:34 10° SSW 05:19:13 80° ESE 05:24:55 10° NNE
UNKNOWN OBJECT B 4.4 05:16:46 10° NNW 05:19:41 20° WNW 05:22:32 10° WSW
Cosmos-2242 4.3 05:16:24 11° SW 05:19:50 24° WNW 05:23:22 10° NNW
Cosmos 2221 3.3 05:16:33 10° S 05:20:42 53° E 05:24:54 10° NNE
Cosmos 332 Rocket 4.0 05:17:46 10° SSW 05:22:29 58° WNW 05:27:17 10° NNE
Cosmos 1655 Rocket 4.3 05:19:26 10° NNW 05:25:33 48° W 05:31:38 10° SSW
Thor Agena Rocket 3.6 05:22:36 10° S 05:27:33 58° WSW 05:32:32 10° NNW
Cosmos 540 Rocket 3.9 05:25:35 10° SW 05:30:34 48° WNW 05:35:35 10° N
Cosmos 1953 4.1 05:30:52 10° WSW 05:33:30 17° WNW 05:36:10 10° NNW
Cosmos 2266 Rocket 4.2 05:29:23 10° N 05:35:33 79° E 05:41:47 10° S
Cosmos 2263 Rocket 2.8 05:30:37 10° NNW 05:36:11 64° ENE 05:41:41 10° SE
